Погода в Хаталдоне

Россия / Республика Северная Осетия — Алания     43°02′06″N   44°21′30″E
темп.,
°C
ветер,
м/с
пор.,
м/с
влажн.,
%
обл.,
%
осадки,
мм/ч
давл.,
гПа
погр.,
м
28 февраля, вс
вс2800:00+1ююз336360 0.0 101836
03:00+1ююз335735 0.0 101846
06:00−1з126646 0.0 101823
09:00+2с117323 0.0 1016172
12:00+3ссв228322 0.0 1015392
15:00+1ссв349552 0.1 1015306
18:000ссв2399100 0.9 1017174
21:00−1ссз1198100 4.3 101890
1 марта, пн
пн100:00−2с1299100 2.4 1019103
03:00−2с1299100 5.3 102098
06:00−2ссз1299100 2.6 1022147
09:00−2с1198100 5.7 1024171
12:00−1св229898 1.1 1024269
15:00−2ссв229997 1.3 1024230
18:00−3ссв1299100 0.9 1026129
21:00−4зюз0196100 1.4 102846
2 марта, вт
вт200:00−5ююз118598 0.1 102922
03:00−6ююз226653 0.1 102922
06:00−5ююз226286 0.0 102922
09:00−2с116692 0.0 1028149
12:00−1ссв118599 0.0 1026280
15:000ссв118580 0.0 1024353
18:00−3ююз008634 0.0 102522
21:00−3ююз226917 0.0 102630
3 марта, ср
ср300:00−4ююз22633 0.0 102539
03:00−4зюз117039 0.0 102526
06:00−4ююз226789 0.0 102532
09:00−1ссз126155 0.0 1023229
12:000ссв22710 0.0 1021563
15:00+1с227219 0.3 1020781
18:00−1всв118498 0.4 102245
21:00−3ююз127593 0.5 102527
4 марта, чт
чт400:00−3зсз128797 0.2 102695
03:00−4всв239798 4.2 1027310
06:00−5юв2295100 1.2 1028141
09:00−4всв128597 1.3 1029368
12:00−2ссв228863 0.1 1027433
15:00−2св228874 0.3 1026378
18:00−3всв119285 0.1 102847
21:00−4ю118357 0.1 102921